Home > Weather > Geretsried > Past weeks

Flag for Germany Weather for the Past 2 Weeks in Geretsried, Bavaria, Germany

Now
54 °F

Cool.


Feels Like: 51 °F
Forecast: 39 / 69 °F
Wind: 9 mph from East

Location: Altenstadt Airport

Current Time: May 5, 2016 at 9:07:06 PM

Latest Report: May 5, 2016 at 8:20 PM


Visibility: N/A

Pressure: 30.12 "Hg (28.00 "Hg at 609m altitude)

Humidity: 67%

Dew Point: 43 °F

Location of GeretsriedLocation

Historic Weather in Geretsried — Graph

°F

Geretsried Temperature Yesterday

Maximum temperature yesterday: 52 °F (at 4:20 PM)
Minimum temperature yesterday: 36 °F (at 11:20 PM)
Average temperature yesterday: 44 °F

High & Low Weather Summary for the Past Weeks

 TemperatureHumidityPressure
High64 °F (Apr 21, 5:20 PM)100% (Apr 23, 10:20 PM)30.33 "Hg (Apr 23, 10:20 PM)
Low27 °F (Apr 28, 3:20 AM)31% (Apr 30, 5:20 PM)29.59 "Hg (Apr 26, 9:20 AM)
Average42 °F74%29.98 "Hg
* Reported Apr 20 7:20 PM — May 5 7:20 PM, Geretsried, Weather by CustomWeather, © 2016

Note: Actual official high and low records may vary slightly from our data, if they occured in-between our weather recording intervals... More about our weather records

Advertising

Geretsried Weather History for the Previous 24 Hours

Scroll right to see more
 ConditionsComfort  
Time TempWeatherWind HumidityBarometerVisibility
7:20 PM
Thu, May 5
55 °FCool.12 mph63%30.12 "HgN/A
6:20 PM57 °FRefreshingly cool.15 mph55%30.12 "HgN/A
5:20 PM57 °FRefreshingly cool.17 mph55%30.12 "HgN/A
4:20 PM57 °FRefreshingly cool.18 mph51%30.12 "HgN/A
3:20 PM57 °FRefreshingly cool.17 mph51%30.15 "HgN/A
2:20 PM55 °FRefreshingly cool.14 mph47%30.18 "HgN/A
1:20 PM54 °FCool.14 mph51%30.18 "HgN/A
12:20 PM52 °FCool.16 mph50%30.21 "HgN/A
11:20 AM50 °FCool.18 mph54%30.21 "HgN/A
10:20 AM46 °FCool.16 mph62%30.21 "HgN/A
9:20 AM45 °FQuite cool.15 mph66%30.21 "HgN/A
8:20 AM41 °FQuite cool.10 mph76%30.24 "HgN/A
7:20 AM34 °FChilly.6 mph93%30.24 "HgN/A
6:20 AM32 °FChilly.2 mph100%30.24 "HgN/A
5:20 AM36 °FChilly.3 mph93%30.24 "HgN/A
4:20 AM34 °FChilly.3 mph93%30.24 "HgN/A
3:20 AM34 °FChilly.3 mph93%30.27 "HgN/A
2:20 AM34 °FChilly.1 mph87%30.27 "HgN/A
1:20 AM34 °FChilly.3 mph87%30.27 "HgN/A
12:20 AM36 °FChilly.1 mph81%30.27 "HgN/A
11:20 PM
Wed, May 4
36 °FChilly.1 mph81%30.30 "HgN/A
10:20 PM41 °FQuite cool.1 mph70%30.27 "HgN/A
9:20 PM41 °FQuite cool.1 mph70%30.27 "HgN/A
Weather by CustomWeather, © 2016

See weather overviewHow to use our weather pages